Location: Hurstbourne Priors
(51.2000°N, 1.3667°W)
Time: 13:54:46
(UTC+00:00)

GEOS 3 Rocket - Visible Passes

Search period start: 06 August 2020 00:00
Search period end: 16 August 2020 00:00
Orbit: 771 x 848 km, 115.0° (Epoch: 05 August)

Date Brightness Start Highest point End Pass type
(mag) Time Alt. Az. Time Alt. Az. Time Alt. Az.
06 Aug 3.9 01:00:39 10° NE 01:06:00 58° SE 01:07:32 43° S visible
06 Aug 4.6 02:38:49 10° NE 02:43:55 44° NNW 02:48:36 12° WSW visible
07 Aug 4.4 00:37:00 10° NE 00:42:01 37° ESE 00:42:46 35° SE visible
07 Aug 4.0 02:14:54 10° NE 02:20:14 61° NW 02:23:52 21° WSW visible
07 Aug 5.4 03:53:12 10° NE 03:57:36 26° NNW 04:02:01 10° WNW visible
08 Aug 5.0 00:13:39 10° ENE 00:17:55 23° ESE 00:18:01 23° ESE visible
08 Aug 3.7 01:51:01 10° NE 01:56:28 88° NW 01:59:07 32° SW visible
08 Aug 5.0 03:29:20 10° NE 03:34:04 32° NNW 03:38:49 10° W visible
08 Aug 5.7 23:50:57 10° E 23:53:18 14° ESE 23:53:18 14° ESE visible
09 Aug 3.8 01:27:13 10° NE 01:32:36 62° SE 01:34:23 41° S visible
09 Aug 4.6 03:05:26 10° NE 03:10:29 42° NNW 03:15:28 10° W visible
10 Aug 4.3 01:03:33 10° NE 01:08:38 40° ESE 01:09:40 36° SSE visible
10 Aug 4.1 02:41:31 10° NE 02:46:49 58° NW 02:50:45 18° WSW visible
11 Aug 5.0 00:40:09 10° ENE 00:44:34 25° ESE 00:44:57 25° SE visible
11 Aug 3.7 02:17:37 10° NE 02:23:04 83° NW 02:26:03 28° SW visible
11 Aug 5.1 03:55:56 10° NE 04:00:37 31° NNW 04:05:19 10° W visible
12 Aug 5.6 00:17:17 10° ENE 00:20:15 15° ESE 00:20:15 15° ESE visible
12 Aug 3.8 01:53:48 10° NE 01:59:13 67° SE 02:01:21 37° SSW visible
12 Aug 4.7 03:32:02 10° NE 03:37:03 40° NNW 03:42:03 10° W visible
13 Aug 4.3 01:30:07 10° NE 01:35:16 43° ESE 01:36:40 36° SSE visible
13 Aug 4.2 03:08:08 10° NE 03:13:24 55° NW 03:17:45 15° WSW visible
14 Aug 4.9 01:06:38 10° ENE 01:11:13 27° ESE 01:11:59 26° SE visible
14 Aug 3.7 02:44:14 10° NE 02:49:39 78° NW 02:53:05 23° SW visible
15 Aug 5.5 00:43:38 10° ENE 00:47:03 17° ESE 00:47:19 17° ESE visible
15 Aug 3.7 02:20:24 10° NE 02:25:49 72° SE 02:28:25 32° SSW visible
15 Aug 4.7 03:58:39 10° NE 04:03:36 38° NNW 04:08:33 10° W visible
